Preview of NWS' New Version of Forecast
This preview is not operational and should not be used for support decisions.

Regional Weather Roundup (RWR)

Issued by National Weather Service (NWS)

                            
000
ASUS45 KABQ 190610
RWRNM 
NEW MEXICO REGIONAL WEATHER ROUNDUP
NATIONAL WEATHER SERVICE ALBUQUERQUE NM
1100 PM MST MON FEB 18 2019

NOTE: "FAIR" MEANS FEW OR NO CLOUDS BELOW 12,000 FEET AGL WITH NO
       SIGNIFICANT WEATHER OR OBSTRUCTIONS TO VISION.

      THIS PRODUCT IS RELEASED AS TWO VERSIONS.  ONE VERSION NEAR
      THE TOP OF THE HOUR CONTAINING PRELIMINARY DATA FROM ALBUQUERQUE
      AND OTHER STATIONS.  A FINAL VERSION WITH ADDITIONAL DATA IS 
      ISSUED ABOUT 10 MINUTES AFTER THE HOUR.
 
NMZ501-503-504-510>518-190700-
NORTHWEST PLATEAU/NORTHCENTRAL MOUNTAINS
  
CITY           SKY/WX    TMP DP  RH WIND       PRES   REMARKS
FARMINGTON     LGT SNOW  26  24  92 N5        29.84F FOG     WCI  20  
6HR MIN TEMP:  26; 6HR MAX TEMP:  33; 6HR PCP:  0.06;                

LOS ALAMOS     LGT SNOW  17  15  92 SW10G21   29.91F VSB 1   WCI   4  
SANTA FE       MIX PCPN  21  13  71 SE25G33   29.92F WCI   4          
6HR MIN TEMP:  20; 6HR MAX TEMP:  24; 6HR PCP: TRACE;                

TAOS           LGT SNOW  19  17  92 SW10      29.91F FOG     WCI   7  
ANGEL FIRE       N/A     13   5  69 S22G31    29.89F WCI  -6          

$$
NMZ402-403-502-505>509-190700-
WESTCENTRAL MOUNTAINS/SOUTHWEST MOUNTAINS
  
CITY           SKY/WX    TMP DP  RH WIND       PRES   REMARKS
GALLUP         CLOUDY    22  21  96 CALM      29.82F                  
6HR MIN TEMP:  22; 6HR MAX TEMP:  29; 6HR PCP:  0.01;                

GRANTS         LGT SNOW  24  20  86 S13       29.85F WCI  12          
SILVER CITY    FAIR      26  18  71 NW5       29.84F WCI  21          

$$
NMZ407-409-411-412-190700-
SOUTHERN DESERTS
  
CITY           SKY/WX    TMP DP  RH WIND       PRES   REMARKS
DEMING         FAIR      34  14  43 S5        29.84F WCI  30          
6HR MIN TEMP:  34; 6HR MAX TEMP:  57;                                

LAS CRUCES     FAIR      41  14  33 SW5       29.87S                  
HOLLOMAN AFB   FAIR      42  20  40 SW14      29.87S                  
ALAMOGORDO     FAIR      45  12  26 MISG      29.86R                  
T OR C         FAIR      34  16  47 N13       29.83R WCI  25          
6HR MIN TEMP:  34; 6HR MAX TEMP:  53;                                


$$
NMZ519>523-190700-
CENTRAL VALLEYS/CENTRAL HIGHLANDS
  
CITY           SKY/WX    TMP DP  RH WIND       PRES   REMARKS
ALBUQUERQUE    MOCLDY    26  14  60 E28G39    29.88F WCI  10          
6HR MIN TEMP:  26; 6HR MAX TEMP:  33;                                

DOUBLE EAGLE   CLOUDY    25  14  62 E13       29.90F WCI  14          
MORIARTY ARPT  CLOUDY    20  15  78 E10       30.00F WCI   9          
6HR MIN TEMP:  20; 6HR MAX TEMP:  24;                                

CLINES CORNERS LGT SNOW  13   9  84 E18G29    29.93F FOG     WCI  -4  
6HR MIN TEMP:  12; 6HR MAX TEMP:  14; 6HR PCP:  0.01;                

BELEN          MOCLDY    30  17  59 CALM      29.88S                  
6HR MIN TEMP:  30; 6HR MAX TEMP:  41;                                

SOCORRO        FAIR      29  17  61 NW7       29.89S WCI  22          
6HR MIN TEMP:  27; 6HR MAX TEMP:  51;                                


$$
NMZ524>526-539-540-190700-
SOUTHCENTRAL MOUNTAINS
  
CITY           SKY/WX    TMP DP  RH WIND       PRES   REMARKS
RUIDOSO        NOT AVBL                                               

$$
NMZ527>531-190700-
NORTHEAST HIGHLANDS/NORTHEAST PLAINS
  
CITY           SKY/WX    TMP DP  RH WIND       PRES   REMARKS
LAS VEGAS      LGT SNOW  14  11  87 E6        30.00F FOG     WCI   5  
6HR MIN TEMP:  13; 6HR MAX TEMP:  15; 6HR PCP: TRACE;                

RATON          LGT SNOW  12   9  87 SW6       30.03F VSB 1   WCI   3  
6HR MIN TEMP:  12; 6HR MAX TEMP:  15; 6HR PCP:  0.03;                

CLAYTON        CLOUDY    10   7  87 NE5       30.11F WCI   2          
6HR MIN TEMP:  10; 6HR MAX TEMP:  16;                                


$$
NMZ532>537-190700-
EASTCENTRAL PLAINS
  
CITY           SKY/WX    TMP DP  RH WIND       PRES   REMARKS
SANTA ROSA     CLOUDY    19  16  86 NE12      30.08F WCI   7          
TUCUMCARI      CLOUDY    22  12  65 E9        30.11F WCI  12          
6HR MIN TEMP:  20; 6HR MAX TEMP:  25;                                

CANNON AFB     FAIR      21   7  54 E14       30.13S WCI   8          
6HR MIN TEMP:  21; 6HR MAX TEMP:  31;                                

CLOVIS AIRPORT FAIR      21  10  62 E15       30.13F WCI   8          

$$
NMZ028-029-538-190700-
SOUTHEAST PLAINS
  
CITY           SKY/WX    TMP DP  RH WIND       PRES   REMARKS
ROSWELL        FAIR      29  13  51 SE3       30.10S                  
6HR MIN TEMP:  29; 6HR MAX TEMP:  44;                                

ARTESIA        FAIR      30  14  51 SE12      30.11F WCI  21          
CARLSBAD       FAIR      30  15  53 NE7       30.11S WCI  23          
6HR MIN TEMP:  30; 6HR MAX TEMP:  46;                                

HOBBS          FAIR      25  12  58 NE17G25   30.12S WCI  11          


$$